Tracking 20040 objects as of 19-Nov-2019
Live streaming from Space Station
objects crossing your sky now

DMSP 5D-2 F6 DEB


DMSP 5D-2 F6 DEB is no longer on orbit


NORAD ID: 40917
Int'l Code: 1982-118K
Perigee: N/A
Apogee: N/A
Inclination: N/A
Period: N/A
Semi major axis: N/A
RCS: N/A
Launch date: December 21, 1982
Source: United States (US)
Launch site: AIR FORCE WESTERN TEST RANGE (AFWTR)
Decay date: 2017-12-18

Note: This is SATELLITE DEBRIS
aabbcc
Your satellite tracking list
Your tracking list is empty




NASA's NSSDC Master Catalog

Two Line Element Set (TLE):
1 40917U 82118K   17350.56107791 +.09959167 +00000-0 +63097-1 0  9995
2 40917 098.6866 216.2100 0019651 054.1827 306.1254 15.70991737088968
Source of the keplerian elements: AFSPC